Silver City, NM

9:04 AM MDT on August 17, 2017 (GMT -0600)
Grant County

Weather History for KSVC - February, 2014

Change the Weather History Date:

Friday, February 7, 2014

  Actual Average (KDMN) Record (KDMN)
Temperature  
Mean Temperature 36 °F -  
Max Temperature 50 °F 60 °F 77 °F (1963)
Min Temperature 23 °F 28 °F 10 °F (1964)
Degree Days  
Heating Degree Days 28    
Moisture  
Dew Point 22 °F    
Average Humidity 55    
Maximum Humidity 80    
Minimum Humidity 35    
Precipitation  
Precipitation 0.00 in - - ()
Sea Level Pressure  
Sea Level Pressure 30.09 in    
Wind  
Wind Speed 9 mph (WNW)    
Max Wind Speed 26 mph    
Max Gust Speed 36 mph    
Visibility 10 miles    
Events Snow , Thunderstorm    
Averages and records for this station are not official NWS values.
T = Trace of Precipitation, MM = Missing Value Source: NWS Daily Summary

Daily Weather History Graph

Daily Weather History Graph

Search for Another Location

Airport or City:

Trip Planner

Search our weather history database for the weather conditions in past years. The results will help you decide how hot, cold, wet, or windy it might be!

Date:

Astronomy

Feb. 07, 2014 Rise Set
Actual Time 7:02 AM MST 5:51 PM MST
Civil Twilight 6:37 AM MST 6:16 PM MST
Nautical Twilight 6:08 AM MST 6:45 PM MST
Astronomical Twilight 5:39 AM MST 7:14 PM MST
Moon 12:08 PM MST (2/7) 1:18 AM MST (2/7)
Length of Visible Light 11h 39m
Length of Day
10h 48m
First Quarter, 60% of the Moon is Illuminated
Feb 7
First Quarter
Feb 14
Full
Feb 22
Last Quarter
Mar 1
New
Mar 8
First Quarter

Hourly Weather History & Observations

Time (MST) Temp. Windchill Dew Point Humidity Pressure Visibility Wind Dir Wind Speed Gust Speed Precip Events Conditions
12:15 AM 28.4 °F 23.3 °F 15.8 °F 59% 30.01 in 10.0 mi North 4.6 mph - N/A   Partly Cloudy
12:35 AM 30.2 °F - 15.8 °F 55% 30.01 in 10.0 mi Calm Calm - N/A   Mostly Cloudy
12:55 AM 32.0 °F 28.7 °F 15.8 °F 51% 30.01 in 10.0 mi WNW 3.5 mph - N/A   Overcast
1:15 AM 32.0 °F 27.5 °F 15.8 °F 51% 30.01 in 10.0 mi NW 4.6 mph - N/A   Overcast
1:35 AM 32.0 °F 27.5 °F 15.8 °F 51% 30.03 in 10.0 mi West 4.6 mph - N/A   Overcast
1:55 AM 32.0 °F 26.4 °F 15.8 °F 51% 30.03 in 10.0 mi West 5.8 mph - N/A   Mostly Cloudy
2:15 AM 32.0 °F 27.5 °F 23.0 °F 69% 30.02 in 8.0 mi West 4.6 mph - N/A Snow Light Snow
2:35 AM 30.2 °F 23.4 °F 24.8 °F 80% 30.01 in 10.0 mi NNW 6.9 mph - N/A   Mostly Cloudy
2:55 AM 32.0 °F - 23.0 °F 69% 30.01 in 10.0 mi Calm Calm - N/A Thunderstorm Overcast
3:15 AM 32.0 °F 28.7 °F 21.2 °F 64% 30.00 in 10.0 mi North 3.5 mph - N/A   Mostly Cloudy
3:35 AM 32.0 °F 27.5 °F 19.4 °F 60% 30.00 in 10.0 mi North 4.6 mph - N/A   Overcast
3:55 AM 32.0 °F 25.6 °F 19.4 °F 60% 30.00 in 10.0 mi NNW 6.9 mph - N/A   Overcast
4:15 AM 32.0 °F 24.8 °F 19.4 °F 60% 30.00 in 10.0 mi NNW 8.1 mph - N/A   Overcast
4:35 AM 32.0 °F 25.6 °F 19.4 °F 60% 30.00 in 10.0 mi North 6.9 mph - N/A   Mostly Cloudy
4:55 AM 30.2 °F 22.6 °F 19.4 °F 64% 30.01 in 10.0 mi North 8.1 mph - N/A   Scattered Clouds
5:15 AM 26.6 °F 18.2 °F 19.4 °F 74% 30.01 in 10.0 mi NNW 8.1 mph - N/A   Partly Cloudy
5:35 AM 26.6 °F 18.2 °F 19.4 °F 74% 30.02 in 10.0 mi WNW 8.1 mph - N/A   Clear
5:55 AM 26.6 °F 17.5 °F 19.4 °F 74% 30.03 in 10.0 mi WNW 9.2 mph - N/A   Clear
6:15 AM 24.8 °F 16.9 °F 19.4 °F 80% 30.04 in 10.0 mi NW 6.9 mph - N/A   Clear
6:35 AM 23.0 °F 15.8 °F 17.6 °F 80% 30.05 in 10.0 mi NNW 5.8 mph - N/A   Clear
6:55 AM 26.6 °F 16.8 °F 19.4 °F 74% 30.06 in 10.0 mi NNW 10.4 mph - N/A   Mostly Cloudy
7:15 AM 30.2 °F 23.4 °F 23.0 °F 75% 30.07 in 10.0 mi NNW 6.9 mph - N/A   Overcast
7:35 AM 30.2 °F 24.3 °F 21.2 °F 69% 30.07 in 10.0 mi NW 5.8 mph - N/A   Mostly Cloudy
7:55 AM 33.8 °F 27.7 °F 23.0 °F 65% 30.07 in 10.0 mi North 6.9 mph - N/A   Scattered Clouds
8:15 AM 35.6 °F 30.7 °F 23.0 °F 60% 30.08 in 10.0 mi WSW 5.8 mph - N/A   Clear
8:35 AM 35.6 °F 29.9 °F 23.0 °F 60% 30.10 in 10.0 mi West 6.9 mph - N/A   Clear
8:55 AM 39.2 °F 35.0 °F 23.0 °F 52% 30.10 in 10.0 mi West 5.8 mph - N/A   Clear
9:15 AM 39.2 °F 33.6 °F 23.0 °F 52% 30.11 in 10.0 mi NW 8.1 mph - N/A   Clear
9:35 AM 41.0 °F 33.5 °F 24.8 °F 53% 30.12 in 10.0 mi NW 13.8 mph 20.7 mph N/A   Partly Cloudy
9:55 AM 42.8 °F 34.5 °F 24.8 °F 49% 30.13 in 10.0 mi NW 18.4 mph 27.6 mph N/A   Mostly Cloudy
10:15 AM 44.6 °F 37.2 °F 24.8 °F 46% 30.13 in 10.0 mi NW 17.3 mph 24.2 mph N/A   Mostly Cloudy
10:35 AM 44.6 °F 37.2 °F 26.6 °F 49% 30.13 in 10.0 mi NW 17.3 mph 24.2 mph N/A   Clear
10:55 AM 46.4 °F 38.7 °F 26.6 °F 46% 30.13 in 10.0 mi WNW 20.7 mph 27.6 mph N/A   Clear
11:15 AM 46.4 °F 38.7 °F 24.8 °F 43% 30.12 in 10.0 mi WNW 20.7 mph 28.8 mph N/A   Clear
11:35 AM 48.2 °F - 24.8 °F 40% 30.12 in 10.0 mi WNW 20.7 mph 28.8 mph N/A   Clear
11:55 AM 50.0 °F - 24.8 °F 37% 30.12 in 10.0 mi WNW 19.6 mph 26.5 mph N/A   Clear
12:15 PM 50.0 °F - 24.8 °F 37% 30.11 in 10.0 mi WNW 23.0 mph 31.1 mph N/A   Scattered Clouds
12:35 PM 50.0 °F - 24.8 °F 37% 30.10 in 10.0 mi West 23.0 mph 32.2 mph N/A   Mostly Cloudy
12:55 PM 48.2 °F - 24.8 °F 40% 30.10 in 10.0 mi WNW 21.9 mph 27.6 mph N/A   Partly Cloudy
1:15 PM 50.0 °F - 24.8 °F 37% 30.10 in 10.0 mi West 20.7 mph 35.7 mph N/A   Mostly Cloudy
1:35 PM 50.0 °F - 24.8 °F 37% 30.09 in 10.0 mi WNW 21.9 mph 33.4 mph N/A   Mostly Cloudy
1:55 PM 50.0 °F - 24.8 °F 37% 30.08 in 10.0 mi West 24.2 mph 27.6 mph N/A   Partly Cloudy
2:15 PM 50.0 °F - 24.8 °F 37% 30.08 in 10.0 mi WNW 23.0 mph 29.9 mph N/A   Clear
2:35 PM 50.0 °F - 24.8 °F 37% 30.08 in 10.0 mi WNW 20.7 mph 29.9 mph N/A   Partly Cloudy
2:55 PM 50.0 °F - 23.0 °F 35% 30.08 in 10.0 mi WNW 18.4 mph 26.5 mph N/A   Clear
3:15 PM 50.0 °F - 23.0 °F 35% 30.06 in 10.0 mi WNW 16.1 mph 25.3 mph N/A   Clear
3:35 PM 50.0 °F - 24.8 °F 37% 30.07 in 10.0 mi WNW 17.3 mph 28.8 mph N/A   Clear
3:55 PM 50.0 °F - 23.0 °F 35% 30.07 in 10.0 mi West 24.2 mph 27.6 mph N/A   Clear
4:15 PM 50.0 °F - 23.0 °F 35% 30.08 in 10.0 mi WNW 19.6 mph 29.9 mph N/A   Clear
4:35 PM 50.0 °F - 23.0 °F 35% 30.09 in 10.0 mi West 21.9 mph 32.2 mph N/A   Clear
4:55 PM 48.2 °F - 23.0 °F 37% 30.09 in 10.0 mi WNW 26.5 mph 29.9 mph N/A   Clear
5:15 PM 48.2 °F - 24.8 °F 40% 30.11 in 10.0 mi WNW 18.4 mph 25.3 mph N/A   Clear
5:35 PM 46.4 °F 40.4 °F 24.8 °F 43% 30.12 in 10.0 mi WNW 13.8 mph 18.4 mph N/A   Clear
5:55 PM 44.6 °F 39.2 °F 24.8 °F 46% 30.12 in 10.0 mi WNW 10.4 mph - N/A   Clear
6:15 PM 44.6 °F 39.7 °F 24.8 °F 46% 30.13 in 10.0 mi WNW 9.2 mph - N/A   Clear
6:35 PM 41.0 °F 35.8 °F 24.8 °F 53% 30.14 in 10.0 mi WNW 8.1 mph - N/A   Clear
6:55 PM 39.2 °F 34.2 °F 24.8 °F 56% 30.14 in 10.0 mi WNW 6.9 mph - N/A   Clear
7:15 PM 39.2 °F 37.0 °F 24.8 °F 56% 30.15 in 10.0 mi WNW 3.5 mph - N/A   Clear
7:35 PM 37.4 °F - 24.8 °F 60% 30.15 in 10.0 mi Calm Calm - N/A   Clear
7:55 PM 37.4 °F 32.1 °F 23.0 °F 56% 30.16 in 10.0 mi WNW 6.9 mph - N/A   Clear
8:15 PM 33.8 °F 27.7 °F 23.0 °F 65% 30.16 in 10.0 mi WNW 6.9 mph - N/A   Clear
8:35 PM 32.0 °F 23.0 °F 21.2 °F 64% 30.15 in 10.0 mi NW 11.5 mph - N/A   Clear
8:55 PM 35.6 °F 27.1 °F 23.0 °F 60% 30.15 in 10.0 mi NW 12.7 mph - N/A   Clear
9:15 PM 33.8 °F 26.4 °F 23.0 °F 65% 30.16 in 10.0 mi WNW 9.2 mph - N/A   Clear
9:35 PM 35.6 °F 28.6 °F 23.0 °F 60% 30.16 in 10.0 mi WNW 9.2 mph - N/A   Clear
9:55 PM 35.6 °F 29.2 °F 23.0 °F 60% 30.16 in 10.0 mi WNW 8.1 mph - N/A   Clear
10:15 PM 33.8 °F 29.6 °F 23.0 °F 65% 30.17 in 10.0 mi WNW 4.6 mph - N/A   Clear
10:35 PM 33.8 °F 28.6 °F 23.0 °F 65% 30.17 in 10.0 mi WNW 5.8 mph - N/A   Clear
10:55 PM 32.0 °F 27.5 °F 23.0 °F 69% 30.17 in 10.0 mi WNW 4.6 mph - N/A   Clear
11:15 PM 30.2 °F 24.3 °F 21.2 °F 69% 30.16 in 10.0 mi West 5.8 mph - N/A   Clear
11:35 PM 30.2 °F 26.7 °F 23.0 °F 75% 30.17 in 10.0 mi West 3.5 mph - N/A   Clear
11:55 PM 30.2 °F 24.3 °F 21.2 °F 69% 30.16 in 10.0 mi West 5.8 mph - N/A   Clear